Tracking 30995 objects as of 5-Jul-2025
HD Live streaming from Space Station
objects crossing your sky now

STARLINK-5241

Track STARLINK-5241 now!
10-day predictions
STARLINK-5241 is classified as:


NORAD ID: 54204
Int'l Code: 2022-141AZ
Perigee: 546.0 km
Apogee: 547.8 km
Inclination: 53.2 °
Period: 95.4 minutes
Semi major axis: 6917 km
RCS: Unknown
Launch date: October 28, 2022
Source: United States (US)
Launch site: AIR FORCE WESTERN TEST RANGE (AFWTR)
Your satellite tracking list
Your tracking list is empty




NASA's NSSDC Master Catalog

Two Line Element Set (TLE):
1 54204U 22141AZ  25186.54578617 -.00000302  00000-0 -87078-6 0  9993
2 54204  53.2183  23.1602 0001292  90.7046 269.4094 15.08840943148697
Source of the keplerian elements: AFSPC